"Sample Date","Sample Time","Sensor Name","Sample Value","Units","Flow Rate","Sample Interval","Sample Volume","Laser Status","Number Channels","Micron Size 0","Counts/Channel 0","Micron Size 1","Counts/Channel 1","Micron Size 2","Counts/Channel 2","Micron Size 3","Counts/Channel 3","Micron Size 4","Counts/Channel 4","Micron Size 5","Counts/Channel 5","Micron Size 6","Counts/Channel 6","Micron Size 7","Counts/Channel 7","Micron Size 8","Counts/Channel 8","Micron Size 9","Counts/Channel 9","Micron Size 10","Counts/Channel 10","Micron Size 11","Counts/Channel 11","Micron Size 12","Counts/Channel 12","Micron Size 13","Counts/Channel 13","Micron Size 14","Counts/Channel 14","Micron Size 15","Counts/Channel 15","Micron Size 16","Counts/Channel 16","Micron Size 17","Counts/Channel 17","Micron Size 18","Counts/Channel 18","Micron Size 19","Counts/Channel 19","Micron Size 20","Counts/Channel 20","Micron Size 21","Counts/Channel 21","Micron Size 22","Counts/Channel 22","Micron Size 23","Counts/Channel 23","Micron Size 24","Counts/Channel 24","Micron Size 25","Counts/Channel 25","Micron Size 26","Counts/Channel 26","Micron Size 27","Counts/Channel 27","Micron Size 28","Counts/Channel 28","Micron Size 29","Counts/Channel 29","Micron Size 30","Counts/Channel 30","Micron Size 31","Counts/Channel 31"
"07/01/06","09:00:04","AMMA06",48063.000,"cc",28273.035,6.00,2827.304,1,6,0.100,25436.000,0.200,17956.000,0.300,3401.000,0.500,733.000,1.000,535.000,5.000,2.000
"07/01/06","09:00:10","AMMA06",48004.000,"cc",28327.156,6.00,2832.716,1,6,0.100,25183.000,0.200,18042.000,0.300,3535.000,0.500,727.000,1.000,516.000,5.000,1.000
"07/01/06","09:00:16","AMMA06",47827.000,"cc",28312.357,6.00,2831.236,1,6,0.100,25309.000,0.200,17881.000,0.300,3432.000,0.500,706.000,1.000,499.000,5.000,0
"07/01/06","09:00:22","AMMA06",47302.000,"cc",28332.861,6.00,2833.286,1,6,0.100,24986.000,0.200,17623.000,0.300,3456.000,0.500,692.000,1.000,545.000,5.000,0
"07/01/06","09:00:28","AMMA06",47893.000,"cc",28278.295,6.00,2827.830,1,6,0.100,25376.000,0.200,17772.000,0.300,3475.000,0.500,725.000,1.000,542.000,5.000,3.000
"07/01/06","09:00:34","AMMA06",47222.000,"cc",28375.102,6.00,2837.510,1,6,0.100,24715.000,0.200,17777.000,0.300,3412.000,0.500,777.000,1.000,541.000,5.000,0
"07/01/06","09:00:40","AMMA06",47590.000,"cc",28261.313,6.00,2826.131,1,6,0.100,25222.000,0.200,17793.000,0.300,3426.000,0.500,691.000,1.000,457.000,5.000,1.000
"07/01/06","09:00:46","AMMA06",48036.000,"cc",28320.789,6.00,2832.079,1,6,0.100,25431.000,0.200,17880.000,0.300,3472.000,0.500,745.000,1.000,507.000,5.000,1.000
"07/01/06","09:00:52","AMMA06",47501.000,"cc",28340.147,6.00,2834.015,1,6,0.100,25027.000,0.200,17787.000,0.300,3391.000,0.500,777.000,1.000,518.000,5.000,1.000
"07/01/06","09:00:58","AMMA06",47198.000,"cc",28315.975,6.00,2831.598,1,6,0.100,25073.000,0.200,17514.000,0.300,3374.000,0.500,730.000,1.000,506.000,5.000,1.000
"07/01/06","09:01:04","AMMA06",47185.000,"cc",28331.592,6.00,2833.159,1,6,0.100,25171.000,0.200,17458.000,0.300,3279.000,0.500,721.000,1.000,555.000,5.000,1.000
"07/01/06","09:01:10","AMMA06",47352.000,"cc",28301.611,6.00,2830.161,1,6,0.100,25083.000,0.200,17757.000,0.300,3354.000,0.500,648.000,1.000,506.000,5.000,4.000
"07/01/06","09:01:16","AMMA06",47488.000,"cc",28326.988,6.00,2832.699,1,6,0.100,25204.000,0.200,17629.000,0.300,3388.000,0.500,731.000,1.000,534.000,5.000,2.000
"07/01/06","09:01:22","AMMA06",47703.000,"cc",28319.209,6.00,2831.921,1,6,0.100,25432.000,0.200,17709.000,0.300,3309.000,0.500,748.000,1.000,505.000,5.000,0
"07/01/06","09:01:28","AMMA06",47119.000,"cc",28346.650,6.00,2834.665,1,6,0.100,25418.000,0.200,17230.000,0.300,3255.000,0.500,736.000,1.000,479.000,5.000,1.000
"07/01/06","09:01:34","AMMA06",46854.000,"cc",28245.967,6.00,2824.597,1,6,0.100,25111.000,0.200,17375.000,0.300,3162.000,0.500,694.000,1.000,512.000,5.000,0
"07/01/06","09:01:40","AMMA06",47391.000,"cc",28276.650,6.00,2827.665,1,6,0.100,25412.000,0.200,17362.000,0.300,3363.000,0.500,740.000,1.000,513.000,5.000,1.000
"07/01/06","09:01:46","AMMA06",47508.000,"cc",28338.209,6.00,2833.821,1,6,0.100,25393.000,0.200,17512.000,0.300,3325.000,0.500,767.000,1.000,511.000,5.000,0
"07/01/06","09:01:52","AMMA06",47568.000,"cc",28324.428,6.00,2832.443,1,6,0.100,25682.000,0.200,17321.000,0.300,3325.000,0.500,724.000,1.000,516.000,5.000,0
"07/01/06","09:01:58","AMMA06",47359.000,"cc",28363.090,6.00,2836.309,1,6,0.100,25408.000,0.200,17369.000,0.300,3280.000,0.500,762.000,1.000,539.000,5.000,1.000
"07/01/06","09:02:04","AMMA06",47080.000,"cc",28332.477,6.00,2833.248,1,6,0.100,25019.000,0.200,17452.000,0.300,3363.000,0.500,736.000,1.000,510.000,5.000,0
"07/01/06","09:02:10","AMMA06",47220.000,"cc",28268.609,6.00,2826.861,1,6,0.100,25216.000,0.200,17553.000,0.300,3245.000,0.500,721.000,1.000,484.000,5.000,1.000
"07/01/06","09:02:16","AMMA06",47623.000,"cc",28322.623,6.00,2832.263,1,6,0.100,25433.000,0.200,17606.000,0.300,3371.000,0.500,702.000,1.000,510.000,5.000,1.000
"07/01/06","09:02:22","AMMA06",46985.000,"cc",28316.500,6.00,2831.650,1,6,0.100,25049.000,0.200,17399.000,0.300,3352.000,0.500,686.000,1.000,498.000,5.000,1.000
"07/01/06","09:02:28","AMMA06",46716.000,"cc",28303.076,6.00,2830.308,1,6,0.100,24853.000,0.200,17288.000,0.300,3398.000,0.500,691.000,1.000,484.000,5.000,2.000
"07/01/06","09:02:34","AMMA06",47092.000,"cc",28280.365,6.00,2828.037,1,6,0.100,25135.000,0.200,17291.000,0.300,3379.000,0.500,750.000,1.000,534.000,5.000,3.000
"07/01/06","09:02:40","AMMA06",47244.000,"cc",28298.789,6.00,2829.879,1,6,0.100,25156.000,0.200,17465.000,0.300,3360.000,0.500,721.000,1.000,542.000,5.000,0
"07/01/06","09:02:46","AMMA06",47456.000,"cc",28343.344,6.00,2834.335,1,6,0.100,25232.000,0.200,17648.000,0.300,3375.000,0.500,739.000,1.000,460.000,5.000,2.000
"07/01/06","09:02:52","AMMA06",47602.000,"cc",28331.846,6.00,2833.185,1,6,0.100,25419.000,0.200,17524.000,0.300,3420.000,0.500,713.000,1.000,526.000,5.000,0
"07/01/06","09:02:58","AMMA06",47362.000,"cc",28326.051,6.00,2832.605,1,6,0.100,25080.000,0.200,17533.000,0.300,3433.000,0.500,740.000,1.000,576.000,5.000,0
"07/01/06","09:03:04","AMMA06",47437.000,"cc",28258.262,6.00,2825.826,1,6,0.100,25242.000,0.200,17658.000,0.300,3314.000,0.500,702.000,1.000,521.000,5.000,0
"07/01/06","09:03:10","AMMA06",47377.000,"cc",28282.090,6.00,2828.209,1,6,0.100,25210.000,0.200,17591.000,0.300,3380.000,0.500,698.000,1.000,496.000,5.000,2.000
"07/01/06","09:03:16","AMMA06",47024.000,"cc",28367.402,6.00,2836.741,1,6,0.100,25167.000,0.200,17292.000,0.300,3327.000,0.500,749.000,1.000,488.000,5.000,1.000
"07/01/06","09:03:22","AMMA06",46854.000,"cc",28290.709,6.00,2829.071,1,6,0.100,24997.000,0.200,17213.000,0.300,3429.000,0.500,695.000,1.000,520.000,5.000,0
"07/01/06","09:03:28","AMMA06",46707.000,"cc",28318.242,6.00,2831.825,1,6,0.100,24819.000,0.200,17358.000,0.300,3346.000,0.500,680.000,1.000,502.000,5.000,2.000
"07/01/06","09:03:34","AMMA06",46910.000,"cc",28335.102,6.00,2833.510,1,6,0.100,24952.000,0.200,17313.000,0.300,3337.000,0.500,752.000,1.000,555.000,5.000,1.000
"07/01/06","09:03:40","AMMA06",46825.000,"cc",28302.213,6.00,2830.221,1,6,0.100,24975.000,0.200,17244.000,0.300,3368.000,0.500,707.000,1.000,531.000,5.000,0
"07/01/06","09:03:46","AMMA06",47145.000,"cc",28350.279,6.00,2835.028,1,6,0.100,25110.000,0.200,17448.000,0.300,3298.000,0.500,737.000,1.000,552.000,5.000,0
"07/01/06","09:03:52","AMMA06",47355.000,"cc",28305.113,6.00,2830.512,1,6,0.100,25222.000,0.200,17531.000,0.300,3359.000,0.500,708.000,1.000,535.000,5.000,0
"07/01/06","09:03:58","AMMA06",47127.000,"cc",28314.199,6.00,2831.420,1,6,0.100,25043.000,0.200,17591.000,0.300,3295.000,0.500,724.000,1.000,472.000,5.000,2.000
"07/01/06","09:04:04","AMMA06",47019.000,"cc",28336.658,6.00,2833.666,1,6,0.100,25143.000,0.200,17303.000,0.300,3374.000,0.500,699.000,1.000,500.000,5.000,0
"07/01/06","09:04:10","AMMA06",46620.000,"cc",28325.443,6.00,2832.544,1,6,0.100,24716.000,0.200,17198.000,0.300,3407.000,0.500,800.000,1.000,498.000,5.000,1.000
"07/01/06","09:04:16","AMMA06",46937.000,"cc",28313.691,6.00,2831.369,1,6,0.100,25035.000,0.200,17369.000,0.300,3281.000,0.500,773.000,1.000,478.000,5.000,1.000
"07/01/06","09:04:22","AMMA06",46764.000,"cc",28361.969,6.00,2836.197,1,6,0.100,25072.000,0.200,17203.000,0.300,3331.000,0.500,675.000,1.000,479.000,5.000,4.000
"07/01/06","09:04:28","AMMA06",46611.000,"cc",28277.918,6.00,2827.792,1,6,0.100,24646.000,0.200,17331.000,0.300,3401.000,0.500,727.000,1.000,505.000,5.000,1.000
"07/01/06","09:04:34","AMMA06",47058.000,"cc",28314.770,6.00,2831.477,1,6,0.100,25003.000,0.200,17374.000,0.300,3476.000,0.500,694.000,1.000,511.000,5.000,0
"07/01/06","09:04:40","AMMA06",47291.000,"cc",28307.066,6.00,2830.707,1,6,0.100,24976.000,0.200,17632.000,0.300,3447.000,0.500,730.000,1.000,503.000,5.000,3.000
"07/01/06","09:04:46","AMMA06",47143.000,"cc",28302.691,6.00,2830.269,1,6,0.100,24966.000,0.200,17489.000,0.300,3468.000,0.500,724.000,1.000,496.000,5.000,0
"07/01/06","09:04:52","AMMA06",47308.000,"cc",28365.760,6.00,2836.576,1,6,0.100,24864.000,0.200,17785.000,0.300,3363.000,0.500,724.000,1.000,571.000,5.000,1.000
"07/01/06","09:04:58","AMMA06",46853.000,"cc",28289.900,6.00,2828.990,1,6,0.100,24507.000,0.200,17609.000,0.300,3507.000,0.500,726.000,1.000,504.000,5.000,0
"07/01/06","09:05:04","AMMA06",47064.000,"cc",28295.037,6.00,2829.504,1,6,0.100,24720.000,0.200,17740.000,0.300,3392.000,0.500,681.000,1.000,531.000,5.000,0
"07/01/06","09:05:10","AMMA06",46805.000,"cc",28302.029,6.00,2830.203,1,6,0.100,24344.000,0.200,17792.000,0.300,3425.000,0.500,727.000,1.000,516.000,5.000,1.000
"07/01/06","09:05:16","AMMA06",46944.000,"cc",28328.018,6.00,2832.802,1,6,0.100,24598.000,0.200,17719.000,0.300,3387.000,0.500,703.000,1.000,536.000,5.000,1.000
"07/01/06","09:05:22","AMMA06",46992.000,"cc",28328.201,6.00,2832.820,1,6,0.100,24732.000,0.200,17556.000,0.300,3473.000,0.500,742.000,1.000,489.000,5.000,0
"07/01/06","09:05:28","AMMA06",47314.000,"cc",28296.520,6.00,2829.652,1,6,0.100,24946.000,0.200,17634.000,0.300,3454.000,0.500,759.000,1.000,520.000,5.000,1.000
"07/01/06","09:05:34","AMMA06",46885.000,"cc",28298.008,6.00,2829.801,1,6,0.100,24757.000,0.200,17439.000,0.300,3459.000,0.500,672.000,1.000,558.000,5.000,0
"07/01/06","09:05:40","AMMA06",46780.000,"cc",28297.764,6.00,2829.777,1,6,0.100,24466.000,0.200,17599.000,0.300,3524.000,0.500,705.000,1.000,485.000,5.000,1.000
"07/01/06","09:05:46","AMMA06",47321.000,"cc",28369.242,6.00,2836.924,1,6,0.100,25040.000,0.200,17540.000,0.300,3478.000,0.500,706.000,1.000,553.000,5.000,4.000
"07/01/06","09:05:52","AMMA06",47062.000,"cc",28312.908,6.00,2831.291,1,6,0.100,24602.000,0.200,17850.000,0.300,3393.000,0.500,733.000,1.000,482.000,5.000,2.000
"07/01/06","09:05:58","AMMA06",47023.000,"cc",28391.111,6.00,2839.111,1,6,0.100,24971.000,0.200,17513.000,0.300,3368.000,0.500,684.000,1.000,486.000,5.000,1.000
"07/01/06","09:06:04","AMMA06",46963.000,"cc",28316.557,6.00,2831.656,1,6,0.100,24615.000,0.200,17749.000,0.300,3339.000,0.500,712.000,1.000,548.000,5.000,0
"07/01/06","09:06:10","AMMA06",47013.000,"cc",28316.357,6.00,2831.636,1,6,0.100,24595.000,0.200,17779.000,0.300,3365.000,0.500,770.000,1.000,504.000,5.000,0
"07/01/06","09:06:16","AMMA06",46891.000,"cc",28337.885,6.00,2833.789,1,6,0.100,24640.000,0.200,17539.000,0.300,3457.000,0.500,727.000,1.000,527.000,5.000,1.000
"07/01/06","09:06:22","AMMA06",46710.000,"cc",28283.467,6.00,2828.347,1,6,0.100,24528.000,0.200,17651.000,0.300,3320.000,0.500,685.000,1.000,526.000,5.000,0
"07/01/06","09:06:28","AMMA06",47183.000,"cc",28293.766,6.00,2829.377,1,6,0.100,25200.000,0.200,17295.000,0.300,3446.000,0.500,725.000,1.000,514.000,5.000,3.000
"07/01/06","09:06:34","AMMA06",46135.000,"cc",28329.941,6.00,2832.994,1,6,0.100,24470.000,0.200,17163.000,0.300,3314.000,0.500,676.000,1.000,511.000,5.000,1.000
"07/01/06","09:06:40","AMMA06",46658.000,"cc",28310.553,6.00,2831.055,1,6,0.100,24582.000,0.200,17525.000,0.300,3322.000,0.500,700.000,1.000,527.000,5.000,2.000
"07/01/06","09:06:46","AMMA06",46735.000,"cc",28307.389,6.00,2830.739,1,6,0.100,24762.000,0.200,17354.000,0.300,3352.000,0.500,735.000,1.000,531.000,5.000,1.000
"07/01/06","09:06:52","AMMA06",46594.000,"cc",28270.330,6.00,2827.033,1,6,0.100,24692.000,0.200,17339.000,0.300,3320.000,0.500,724.000,1.000,517.000,5.000,2.000
"07/01/06","09:06:58","AMMA06",47004.000,"cc",28312.965,6.00,2831.297,1,6,0.100,24818.000,0.200,17574.000,0.300,3397.000,0.500,703.000,1.000,510.000,5.000,2.000
"07/01/06","09:07:04","AMMA06",46431.000,"cc",28268.994,6.00,2826.900,1,6,0.100,24689.000,0.200,17150.000,0.300,3354.000,0.500,720.000,1.000,518.000,5.000,0
"07/01/06","09:07:10","AMMA06",46698.000,"cc",28336.678,6.00,2833.668,1,6,0.100,25007.000,0.200,16984.000,0.300,3434.000,0.500,762.000,1.000,509.000,5.000,2.000
"07/01/06","09:07:16","AMMA06",46728.000,"cc",28363.758,6.00,2836.376,1,6,0.100,24804.000,0.200,17322.000,0.300,3391.000,0.500,726.000,1.000,485.000,5.000,0
"07/01/06","09:07:22","AMMA06",46569.000,"cc",28340.047,6.00,2834.005,1,6,0.100,24723.000,0.200,17174.000,0.300,3396.000,0.500,756.000,1.000,520.000,5.000,0
"07/01/06","09:07:28","AMMA06",46883.000,"cc",28327.711,6.00,2832.771,1,6,0.100,24818.000,0.200,17424.000,0.300,3386.000,0.500,703.000,1.000,550.000,5.000,2.000
"07/01/06","09:07:34","AMMA06",46720.000,"cc",28326.971,6.00,2832.697,1,6,0.100,24768.000,0.200,17471.000,0.300,3271.000,0.500,682.000,1.000,526.000,5.000,2.000
"07/01/06","09:07:40","AMMA06",47102.000,"cc",28303.426,6.00,2830.343,1,6,0.100,25059.000,0.200,17481.000,0.300,3323.000,0.500,703.000,1.000,535.000,5.000,1.000
"07/01/06","09:07:46","AMMA06",46862.000,"cc",28410.523,6.00,2841.053,1,6,0.100,24776.000,0.200,17461.000,0.300,3305.000,0.500,763.000,1.000,557.000,5.000,0
"07/01/06","09:07:52","AMMA06",46875.000,"cc",28260.037,6.00,2826.004,1,6,0.100,24888.000,0.200,17416.000,0.300,3325.000,0.500,716.000,1.000,530.000,5.000,0
"07/01/06","09:07:58","AMMA06",46615.000,"cc",28266.690,6.00,2826.669,1,6,0.100,24887.000,0.200,17224.000,0.300,3264.000,0.500,684.000,1.000,555.000,5.000,1.000
"07/01/06","09:08:04","AMMA06",46559.000,"cc",28321.303,6.00,2832.130,1,6,0.100,24940.000,0.200,17068.000,0.300,3289.000,0.500,724.000,1.000,538.000,5.000,0
"07/01/06","09:08:10","AMMA06",46712.000,"cc",28293.768,6.00,2829.377,1,6,0.100,25129.000,0.200,17162.000,0.300,3195.000,0.500,706.000,1.000,519.000,5.000,1.000
"07/01/06","09:08:16","AMMA06",46550.000,"cc",28336.031,6.00,2833.603,1,6,0.100,24924.000,0.200,17208.000,0.300,3219.000,0.500,737.000,1.000,461.000,5.000,1.000
"07/01/06","09:08:22","AMMA06",46716.000,"cc",28314.981,6.00,2831.498,1,6,0.100,24956.000,0.200,17287.000,0.300,3265.000,0.500,695.000,1.000,512.000,5.000,1.000
"07/01/06","09:08:28","AMMA06",46835.000,"cc",28294.764,6.00,2829.477,1,6,0.100,25103.000,0.200,17209.000,0.300,3252.000,0.500,761.000,1.000,509.000,5.000,1.000
"07/01/06","09:08:34","AMMA06",46926.000,"cc",28315.926,6.00,2831.593,1,6,0.100,25276.000,0.200,17159.000,0.300,3229.000,0.500,752.000,1.000,509.000,5.000,1.000
"07/01/06","09:08:40","AMMA06",46787.000,"cc",28295.586,6.00,2829.559,1,6,0.100,25351.000,0.200,17029.000,0.300,3210.000,0.500,718.000,1.000,479.000,5.000,0
"07/01/06","09:08:46","AMMA06",46524.000,"cc",28342.231,6.00,2834.223,1,6,0.100,24989.000,0.200,17025.000,0.300,3285.000,0.500,716.000,1.000,507.000,5.000,2.000
"07/01/06","09:08:52","AMMA06",46233.000,"cc",28318.734,6.00,2831.874,1,6,0.100,24795.000,0.200,17017.000,0.300,3202.000,0.500,724.000,1.000,495.000,5.000,0
"07/01/06","09:08:58","AMMA06",46526.000,"cc",28348.721,6.00,2834.872,1,6,0.100,25021.000,0.200,16991.000,0.300,3261.000,0.500,753.000,1.000,500.000,5.000,0
"07/01/06","09:09:04","AMMA06",46697.000,"cc",28287.686,6.00,2828.769,1,6,0.100,24915.000,0.200,17365.000,0.300,3218.000,0.500,711.000,1.000,487.000,5.000,1.000
"07/01/06","09:09:10","AMMA06",46183.000,"cc",28333.436,6.00,2833.344,1,6,0.100,24855.000,0.200,16882.000,0.300,3268.000,0.500,684.000,1.000,492.000,5.000,2.000
"07/01/06","09:09:16","AMMA06",46610.000,"cc",28324.723,6.00,2832.472,1,6,0.100,25106.000,0.200,16971.000,0.300,3314.000,0.500,741.000,1.000,476.000,5.000,2.000
"07/01/06","09:09:22","AMMA06",46505.000,"cc",28290.018,6.00,2829.002,1,6,0.100,25023.000,0.200,16979.000,0.300,3227.000,0.500,721.000,1.000,552.000,5.000,3.000
"07/01/06","09:09:28","AMMA06",46391.000,"cc",28349.764,6.00,2834.977,1,6,0.100,24735.000,0.200,17179.000,0.300,3273.000,0.500,682.000,1.000,521.000,5.000,1.000
"07/01/06","09:09:34","AMMA06",46570.000,"cc",28294.822,6.00,2829.482,1,6,0.100,24833.000,0.200,17295.000,0.300,3240.000,0.500,757.000,1.000,444.000,5.000,1.000
"07/01/06","09:09:40","AMMA06",46521.000,"cc",28330.717,6.00,2833.072,1,6,0.100,24943.000,0.200,16991.000,0.300,3336.000,0.500,715.000,1.000,535.000,5.000,1.000
"07/01/06","09:09:46","AMMA06",46432.000,"cc",28326.518,6.00,2832.652,1,6,0.100,24949.000,0.200,17098.000,0.300,3199.000,0.500,707.000,1.000,478.000,5.000,1.000
"07/01/06","09:09:52","AMMA06",46420.000,"cc",28331.893,6.00,2833.190,1,6,0.100,24674.000,0.200,17227.000,0.300,3243.000,0.500,740.000,1.000,535.000,5.000,1.000
"07/01/06","09:09:58","AMMA06",46561.000,"cc",28320.088,6.00,2832.009,1,6,0.100,24813.000,0.200,17172.000,0.300,3416.000,0.500,667.000,1.000,493.000,5.000,0
"07/01/06","09:10:04","AMMA06",46290.000,"cc",28319.053,6.00,2831.906,1,6,0.100,24626.000,0.200,17143.000,0.300,3309.000,0.500,697.000,1.000,513.000,5.000,2.000
"07/01/06","09:10:10","AMMA06",46718.000,"cc",28320.625,6.00,2832.063,1,6,0.100,25005.000,0.200,17210.000,0.300,3291.000,0.500,705.000,1.000,506.000,5.000,1.000
"07/01/06","09:10:16","AMMA06",46410.000,"cc",28320.426,6.00,2832.043,1,6,0.100,24721.000,0.200,17044.000,0.300,3386.000,0.500,755.000,1.000,503.000,5.000,1.000
"07/01/06","09:10:22","AMMA06",46494.000,"cc",28292.545,6.00,2829.255,1,6,0.100,24817.000,0.200,17120.000,0.300,3340.000,0.500,712.000,1.000,505.000,5.000,0
"07/01/06","09:10:28","AMMA06",46268.000,"cc",28292.270,6.00,2829.227,1,6,0.100,24841.000,0.200,16806.000,0.300,3419.000,0.500,679.000,1.000,523.000,5.000,0
"07/01/06","09:10:34","AMMA06",46852.000,"cc",28327.436,6.00,2832.744,1,6,0.100,24840.000,0.200,17508.000,0.300,3286.000,0.500,716.000,1.000,501.000,5.000,1.000
"07/01/06","09:10:40","AMMA06",46908.000,"cc",28321.045,6.00,2832.105,1,6,0.100,25113.000,0.200,17187.000,0.300,3398.000,0.500,684.000,1.000,526.000,5.000,0
"07/01/06","09:10:46","AMMA06",46756.000,"cc",28324.205,6.00,2832.421,1,6,0.100,24917.000,0.200,17359.000,0.300,3225.000,0.500,723.000,1.000,531.000,5.000,1.000
"07/01/06","09:10:52","AMMA06",46415.000,"cc",28280.629,6.00,2828.063,1,6,0.100,24955.000,0.200,16998.000,0.300,3247.000,0.500,715.000,1.000,500.000,5.000,0
"07/01/06","09:10:58","AMMA06",46942.000,"cc",28352.516,6.00,2835.252,1,6,0.100,24961.000,0.200,17351.000,0.300,3409.000,0.500,748.000,1.000,473.000,5.000,0
"07/01/06","09:11:04","AMMA06",46543.000,"cc",28303.004,6.00,2830.301,1,6,0.100,24779.000,0.200,17194.000,0.300,3319.000,0.500,761.000,1.000,489.000,5.000,1.000
"07/01/06","09:11:10","AMMA06",46525.000,"cc",28313.102,6.00,2831.310,1,6,0.100,24753.000,0.200,17210.000,0.300,3354.000,0.500,705.000,1.000,503.000,5.000,0
"07/01/06","09:11:16","AMMA06",46889.000,"cc",28385.537,6.00,2838.554,1,6,0.100,25098.000,0.200,17212.000,0.300,3326.000,0.500,720.000,1.000,533.000,5.000,0
"07/01/06","09:11:22","AMMA06",46756.000,"cc",28300.387,6.00,2830.039,1,6,0.100,25031.000,0.200,17248.000,0.300,3259.000,0.500,668.000,1.000,550.000,5.000,0
"07/01/06","09:11:28","AMMA06",46681.000,"cc",28283.846,6.00,2828.385,1,6,0.100,24864.000,0.200,17287.000,0.300,3335.000,0.500,684.000,1.000,509.000,5.000,2.000
"07/01/06","09:11:34","AMMA06",46966.000,"cc",28308.455,6.00,2830.846,1,6,0.100,24959.000,0.200,17481.000,0.300,3320.000,0.500,712.000,1.000,492.000,5.000,2.000
"07/01/06","09:11:40","AMMA06",46855.000,"cc",28347.481,6.00,2834.748,1,6,0.100,25194.000,0.200,17148.000,0.300,3327.000,0.500,684.000,1.000,499.000,5.000,3.000
"07/01/06","09:11:46","AMMA06",46322.000,"cc",28288.106,6.00,2828.811,1,6,0.100,24598.000,0.200,17192.000,0.300,3349.000,0.500,724.000,1.000,459.000,5.000,0
"07/01/06","09:11:52","AMMA06",46994.000,"cc",28363.861,6.00,2836.386,1,6,0.100,25135.000,0.200,17252.000,0.300,3340.000,0.500,749.000,1.000,515.000,5.000,3.000
"07/01/06","09:11:58","AMMA06",46665.000,"cc",28325.977,6.00,2832.598,1,6,0.100,24744.000,0.200,17420.000,0.300,3260.000,0.500,726.000,1.000,515.000,5.000,0
"07/01/06","09:12:04","AMMA06",46868.000,"cc",28268.246,6.00,2826.825,1,6,0.100,24959.000,0.200,17331.000,0.300,3318.000,0.500,728.000,1.000,531.000,5.000,1.000
"07/01/06","09:12:10","AMMA06",46809.000,"cc",28341.637,6.00,2834.164,1,6,0.100,24960.000,0.200,17320.000,0.300,3319.000,0.500,710.000,1.000,500.000,5.000,0
"07/01/06","09:12:16","AMMA06",46863.000,"cc",28294.967,6.00,2829.497,1,6,0.100,24885.000,0.200,17424.000,0.300,3332.000,0.500,735.000,1.000,484.000,5.000,3.000
"07/01/06","09:12:22","AMMA06",46637.000,"cc",28347.713,6.00,2834.772,1,6,0.100,24839.000,0.200,17308.000,0.300,3291.000,0.500,718.000,1.000,481.000,5.000,0
"07/01/06","09:12:28","AMMA06",46378.000,"cc",28354.125,6.00,2835.413,1,6,0.100,24527.000,0.200,17361.000,0.300,3276.000,0.500,668.000,1.000,546.000,5.000,0
"07/01/06","09:12:34","AMMA06",46898.000,"cc",28290.264,6.00,2829.027,1,6,0.100,24809.000,0.200,17492.000,0.300,3402.000,0.500,685.000,1.000,509.000,5.000,1.000
"07/01/06","09:12:40","AMMA06",47006.000,"cc",28330.115,6.00,2833.012,1,6,0.100,24757.000,0.200,17640.000,0.300,3347.000,0.500,730.000,1.000,532.000,5.000,0
"07/01/06","09:12:46","AMMA06",46594.000,"cc",28314.385,6.00,2831.439,1,6,0.100,24525.000,0.200,17368.000,0.300,3478.000,0.500,699.000,1.000,523.000,5.000,1.000
"07/01/06","09:12:52","AMMA06",46987.000,"cc",28250.576,6.00,2825.058,1,6,0.100,24756.000,0.200,17603.000,0.300,3400.000,0.500,703.000,1.000,523.000,5.000,2.000
"07/01/06","09:12:58","AMMA06",46865.000,"cc",28320.065,6.00,2832.007,1,6,0.100,24808.000,0.200,17334.000,0.300,3446.000,0.500,762.000,1.000,515.000,5.000,0
"07/01/06","09:13:04","AMMA06",47248.000,"cc",28336.039,6.00,2833.604,1,6,0.100,24649.000,0.200,17827.000,0.300,3539.000,0.500,717.000,1.000,516.000,5.000,0
"07/01/06","09:13:10","AMMA06",47211.000,"cc",28308.867,6.00,2830.887,1,6,0.100,24565.000,0.200,17903.000,0.300,3472.000,0.500,711.000,1.000,560.000,5.000,0
"07/01/06","09:13:16","AMMA06",47048.000,"cc",28276.592,6.00,2827.659,1,6,0.100,24658.000,0.200,17627.000,0.300,3476.000,0.500,750.000,1.000,536.000,5.000,1.000
"07/01/06","09:13:22","AMMA06",46702.000,"cc",28341.836,6.00,2834.184,1,6,0.100,24382.000,0.200,17559.000,0.300,3505.000,0.500,703.000,1.000,552.000,5.000,1.000
"07/01/06","09:13:28","AMMA06",46450.000,"cc",28355.205,6.00,2835.521,1,6,0.100,24438.000,0.200,17377.000,0.300,3396.000,0.500,705.000,1.000,533.000,5.000,1.000
"07/01/06","09:13:34","AMMA06",46950.000,"cc",28298.512,6.00,2829.851,1,6,0.100,24498.000,0.200,17702.000,0.300,3482.000,0.500,725.000,1.000,542.000,5.000,1.000
"07/01/06","09:13:40","AMMA06",46890.000,"cc",28282.719,6.00,2828.272,1,6,0.100,24531.000,0.200,17606.000,0.300,3525.000,0.500,725.000,1.000,503.000,5.000,0
"07/01/06","09:13:46","AMMA06",47054.000,"cc",28394.102,6.00,2839.410,1,6,0.100,24603.000,0.200,17640.000,0.300,3564.000,0.500,726.000,1.000,521.000,5.000,0
"07/01/06","09:13:52","AMMA06",47138.000,"cc",28308.102,6.00,2830.810,1,6,0.100,24770.000,0.200,17724.000,0.300,3404.000,0.500,740.000,1.000,500.000,5.000,0
"07/01/06","09:13:58","AMMA06",46941.000,"cc",28286.303,6.00,2828.630,1,6,0.100,24664.000,0.200,17560.000,0.300,3448.000,0.500,754.000,1.000,515.000,5.000,0
"07/01/06","09:14:04","AMMA06",47271.000,"cc",28253.709,6.00,2825.371,1,6,0.100,24768.000,0.200,17767.000,0.300,3436.000,0.500,749.000,1.000,551.000,5.000,0